Simultaneous Nadir Overpasses (SNOs) Predictions

Prediction of SNOs between METOP-B and NOAA-19 Satellite Orbit:

Table of predicted SNOs for the next 14.0 days since TLE Epoch: 2/6/2015
Index Date (METOP-B) Time (METOP-B) Lat,Lon (METOP-B) SZA (METOP-B ) Date (NOAA-19) Time (NOAA-19) Lat,Lon (NOAA-19) SZA (NOAA-19 ) Distance(km) Time Diff (sec)
1 02/16/2015 15:22:31 74.60, -54.09 86.92 02/16/2015 15:21:19 74.61, -54.12 86.94 2.03 72
2 02/16/2015 16:13:13 -74.57, 113.16 93.13 02/16/2015 16:12:14 -74.59, 113.21 93.10 3.32 59
3 02/16/2015 17:03:53 74.57, -79.49 86.87 02/16/2015 17:03:21 74.57, -79.50 86.87 0.98 32
4 02/16/2015 17:54:35 -74.54, 87.76 93.17 02/16/2015 17:54:16 -74.55, 87.83 93.17 1.94 19
5 02/16/2015 18:45:15 74.55,-104.88 86.83 02/16/2015 18:45:23 74.52,-104.89 86.80 3.56 8
6 02/16/2015 19:35:57 -74.52, 62.37 93.22 02/16/2015 19:36:19 -74.55, 62.31 93.19 3.19 22
7 02/16/2015 20:26:37 74.53,-130.28 86.79 02/16/2015 20:27:26 74.52,-130.40 86.77 3.86 49
8 02/16/2015 21:17:19 -74.50, 36.97 93.26 02/16/2015 21:18:21 -74.50, 36.92 93.27 1.34 62
9 02/16/2015 22:08:11 73.92,-157.17 86.21 02/16/2015 22:09:17 73.95,-154.39 86.13 85.52 66




NCC Satellite Simultaneous Nadir Overpasses (SNOs) Prediction Service
